Terminal Aerodrome Forecast
Issued by NWS St Louis, MO

Home | Current Version | Previous Version | Text Only | Print | Product List | Glossary On
Versions: 1 2 3 4 5 6 7 8 9 10 11 12 13 14 15 16 17 18 19 20 21 22 23 24 25 26 27
000
FTUS43 KLSX 252055 AAA
TAFSTL
TAF AMD
KSTL 252055Z 2521/2624 36007KT P6SM SCT025 BKN100
     FM260100 VRB04KT P6SM SCT040 BKN250
      TEMPO 2608/2612 5SM BR
     FM261600 06005KT P6SM SCT025 BKN250=

USA.gov is the U.S. government's official web portal to all federal, state and local government web resources and services.